Change the Weather History Date:

Sunday, December 29, 2013

  Actual Average Record
Temperature  
Mean Temperature 20 °F -  
Max Temperature 33 °F 37 °F 33 °F (2013)
Min Temperature 8 °F 11 °F 3 °F (2014)
Degree Days  
Heating Degree Days 44    
Moisture  
Dew Point 10 °F    
Average Humidity 62    
Maximum Humidity 79    
Minimum Humidity 38    
Precipitation  
Precipitation 0.00 in - - ()
Sea Level Pressure  
Sea Level Pressure 30.16 in    
Wind  
Wind Speed 12 mph (West)    
Max Wind Speed 24 mph    
Max Gust Speed 31 mph    
Visibility 10 miles    
Events      
Averages and records for this station are not official NWS values.
T = Trace of Precipitation, MM = Missing Value Source: NWS Daily Summary

Daily Weather History Graph

Daily Weather History Graph

Search for Another Location

Airport or City:

Trip Planner

Search our weather history database for the weather conditions in past years. The results will help you decide how hot, cold, wet, or windy it might be!

Date:

Astronomy

Dec. 29, 2013 Rise Set
Actual Time 7:12 AM MST 4:30 PM MST
Civil Twilight 6:41 AM MST 5:01 PM MST
Nautical Twilight 6:07 AM MST 5:35 PM MST
Astronomical Twilight 5:33 AM MST 6:08 PM MST
Moon 3:57 AM MST (12/29) 2:10 PM MST (12/29)
Length of Visible Light 10h 19m
Length of Day
9h 18m
Waning Crescent, 10% of the Moon is Illuminated
Dec 29
Waning Crescent
Jan 1
New
Jan 7
First Quarter
Jan 15
Full
Jan 23
Last Quarter

Hourly Weather History & Observations

Time (MST) Temp. Windchill Dew Point Humidity Pressure Visibility Wind Dir Wind Speed Gust Speed Precip Events Conditions
12:15 AM 17.6 °F -0.3 °F 6.8 °F 63% 30.25 in 10.0 mi North 24.2 mph 31.1 mph N/A   Overcast
12:35 AM 17.6 °F 1.7 °F 6.8 °F 63% 30.25 in 10.0 mi North 18.4 mph 27.6 mph N/A   Overcast
12:55 AM 17.6 °F 0.9 °F 8.6 °F 68% 30.25 in 10.0 mi North 20.7 mph 25.3 mph N/A   Overcast
1:15 AM 17.6 °F 4.3 °F 8.6 °F 68% 30.27 in 10.0 mi North 12.7 mph - N/A   Overcast
1:35 AM 17.6 °F 0.5 °F 8.6 °F 68% 30.27 in 10.0 mi NNW 21.9 mph - N/A   Overcast
1:55 AM 14.0 °F -4.3 °F 5.0 °F 67% 30.28 in 10.0 mi NNW 21.9 mph 28.8 mph N/A   Overcast
2:15 AM 14.0 °F -2.0 °F 5.0 °F 67% 30.28 in 10.0 mi North 16.1 mph 25.3 mph N/A   Scattered Clouds
2:35 AM 14.0 °F -3.0 °F 5.0 °F 67% 30.29 in 10.0 mi NNW 18.4 mph 21.9 mph N/A   Mostly Cloudy
2:55 AM 14.0 °F -2.0 °F 5.0 °F 67% 30.29 in 10.0 mi NNW 16.1 mph 26.5 mph N/A   Overcast
3:15 AM 14.0 °F -1.4 °F 5.0 °F 67% 30.29 in 10.0 mi North 15.0 mph 24.2 mph N/A   Mostly Cloudy
3:35 AM 14.0 °F -0.2 °F 5.0 °F 67% 30.29 in 10.0 mi NNW 12.7 mph - N/A   Scattered Clouds
3:55 AM 14.0 °F -0.2 °F 5.0 °F 67% 30.29 in 10.0 mi NNW 12.7 mph - N/A   Clear
4:15 AM 14.0 °F 2.0 °F 5.0 °F 67% 30.29 in 10.0 mi NNW 9.2 mph - N/A   Clear
4:35 AM 14.0 °F 2.0 °F 6.8 °F 73% 30.28 in 10.0 mi NW 9.2 mph - N/A   Clear
4:55 AM 14.0 °F 2.0 °F 8.6 °F 79% 30.28 in 10.0 mi NW 9.2 mph - N/A   Clear
5:15 AM 14.0 °F 2.9 °F 8.6 °F 79% 30.29 in 10.0 mi NW 8.1 mph - N/A   Clear
5:35 AM 14.0 °F 2.9 °F 8.6 °F 79% 30.29 in 10.0 mi NW 8.1 mph - N/A   Clear
5:55 AM 12.2 °F 1.7 °F 5.0 °F 73% 30.28 in 10.0 mi WNW 6.9 mph - N/A   Clear
6:15 AM 12.2 °F 1.7 °F 5.0 °F 73% 30.28 in 10.0 mi WNW 6.9 mph - N/A   Clear
6:35 AM 12.2 °F 1.7 °F 5.0 °F 73% 30.28 in 10.0 mi West 6.9 mph - N/A   Clear
6:55 AM 12.2 °F 2.9 °F 5.0 °F 73% 30.28 in 10.0 mi WNW 5.8 mph - N/A   Clear
7:15 AM 10.4 °F -0.4 °F 3.2 °F 73% 30.28 in 10.0 mi West 6.9 mph - N/A   Clear
7:35 AM 8.6 °F 0.1 °F 3.2 °F 79% 30.29 in 10.0 mi West 4.6 mph - N/A   Clear
7:55 AM 10.4 °F 0.8 °F 3.2 °F 73% 30.29 in 10.0 mi West 5.8 mph - N/A   Clear
8:15 AM 12.2 °F 1.7 °F 5.0 °F 73% 30.29 in 10.0 mi West 6.9 mph - N/A   Clear
8:35 AM 14.0 °F 3.9 °F 6.8 °F 73% 30.29 in 10.0 mi NW 6.9 mph - N/A   Clear
8:55 AM 17.6 °F 7.3 °F 6.8 °F 63% 30.29 in 10.0 mi NW 8.1 mph - N/A   Clear
9:15 AM 19.4 °F 9.5 °F 8.6 °F 63% 30.29 in 10.0 mi WNW 8.1 mph - N/A   Clear
9:35 AM 21.2 °F 12.6 °F 8.6 °F 58% 30.29 in 10.0 mi WNW 6.9 mph - N/A   Clear
9:55 AM 21.2 °F 12.6 °F 8.6 °F 58% 30.29 in 10.0 mi NW 6.9 mph - N/A   Clear
10:15 AM 23.0 °F 14.7 °F 8.6 °F 54% 30.28 in 10.0 mi WSW 6.9 mph - N/A   Clear
10:35 AM 24.8 °F 19.1 °F 8.6 °F 50% 30.27 in 10.0 mi West 4.6 mph - N/A   Clear
10:55 AM 24.8 °F 16.9 °F 8.6 °F 50% 30.25 in 10.0 mi West 6.9 mph - N/A   Clear
11:15 AM 26.6 °F 20.0 °F 8.6 °F 47% 30.24 in 10.0 mi SW 5.8 mph - N/A   Clear
11:35 AM 28.4 °F 23.3 °F 8.6 °F 43% 30.22 in 10.0 mi WNW 4.6 mph - N/A   Clear
11:55 AM 30.2 °F 25.4 °F 8.6 °F 40% 30.20 in 10.0 mi West 4.6 mph - N/A   Clear
12:15 PM 32.0 °F - 10.4 °F 41% 30.19 in 10.0 mi Calm Calm - N/A   Clear
12:35 PM 33.8 °F - 10.4 °F 38% 30.18 in 10.0 mi Calm Calm - N/A   Clear
12:55 PM 33.8 °F - 12.2 °F 41% 30.18 in 10.0 mi Calm Calm - N/A   Clear
1:15 PM 33.8 °F - 10.4 °F 38% 30.17 in 10.0 mi Calm Calm - N/A   Clear
1:35 PM 33.8 °F - 10.4 °F 38% 30.16 in 10.0 mi Calm Calm - N/A   Clear
1:55 PM 33.8 °F - 10.4 °F 38% 30.15 in 10.0 mi Calm Calm - N/A   Clear
2:15 PM 33.8 °F - 10.4 °F 38% 30.14 in 10.0 mi Calm Calm - N/A   Clear
2:35 PM 33.8 °F 30.8 °F 10.4 °F 38% 30.13 in 10.0 mi SSE 3.5 mph - N/A   Clear
2:55 PM 33.8 °F 29.6 °F 10.4 °F 38% 30.12 in 10.0 mi SE 4.6 mph - N/A   Clear
3:15 PM 33.8 °F 29.6 °F 10.4 °F 38% 30.11 in 10.0 mi ESE 4.6 mph - N/A   Clear
3:35 PM 33.8 °F 28.6 °F 12.2 °F 41% 30.11 in 10.0 mi ESE 5.8 mph - N/A   Clear
3:55 PM 33.8 °F 29.6 °F 12.2 °F 41% 30.10 in 10.0 mi SSE 4.6 mph - N/A   Clear
4:15 PM 30.2 °F 22.6 °F 12.2 °F 47% 30.09 in 10.0 mi South 8.1 mph - N/A   Clear
4:35 PM 26.6 °F 16.8 °F 12.2 °F 55% 30.09 in 10.0 mi South 10.4 mph - N/A   Clear
4:55 PM 21.2 °F 10.9 °F 10.4 °F 63% 30.08 in 10.0 mi SSE 9.2 mph - N/A   Clear
5:15 PM 19.4 °F 7.9 °F 10.4 °F 68% 30.07 in 10.0 mi SSE 10.4 mph - N/A   Clear
5:35 PM 21.2 °F 10.1 °F 12.2 °F 68% 30.06 in 10.0 mi South 10.4 mph - N/A   Clear
5:55 PM 23.0 °F 12.4 °F 12.2 °F 63% 30.05 in 10.0 mi South 10.4 mph - N/A   Clear
6:15 PM 24.8 °F 14.0 °F 12.2 °F 59% 30.04 in 10.0 mi South 11.5 mph - N/A   Clear
6:35 PM 21.2 °F 10.9 °F 12.2 °F 68% 30.03 in 10.0 mi South 9.2 mph - N/A   Clear
6:55 PM 21.2 °F 9.5 °F 12.2 °F 68% 30.01 in 10.0 mi South 11.5 mph - N/A   Clear
7:15 PM 21.2 °F 10.9 °F 12.2 °F 68% 30.01 in 10.0 mi SSW 9.2 mph - N/A   Clear
7:35 PM 21.2 °F 10.9 °F 12.2 °F 68% 30.00 in 10.0 mi South 9.2 mph - N/A   Clear
7:55 PM 24.8 °F 14.6 °F 14.0 °F 64% 29.99 in 10.0 mi SSW 10.4 mph - N/A   Clear
8:15 PM 23.0 °F 12.4 °F 14.0 °F 68% 29.98 in 10.0 mi SSW 10.4 mph - N/A   Clear
8:35 PM 21.2 °F 11.7 °F 14.0 °F 74% 29.97 in 10.0 mi SSW 8.1 mph - N/A   Clear
8:55 PM 21.2 °F 12.6 °F 14.0 °F 74% 29.96 in 10.0 mi SW 6.9 mph - N/A   Clear
9:15 PM 24.8 °F 15.3 °F 17.6 °F 74% 29.96 in 10.0 mi SW 9.2 mph - N/A   Clear
9:35 PM 26.6 °F 16.2 °F 17.6 °F 69% 29.96 in 10.0 mi SW 11.5 mph - N/A   Scattered Clouds
9:55 PM 26.6 °F 17.5 °F 17.6 °F 69% 29.96 in 10.0 mi SW 9.2 mph - N/A   Overcast
10:15 PM 26.6 °F 18.2 °F 17.6 °F 69% 29.96 in 10.0 mi WSW 8.1 mph - N/A   Overcast
10:35 PM 26.6 °F 19.1 °F 17.6 °F 69% 29.96 in 10.0 mi WSW 6.9 mph - N/A   Overcast
10:55 PM 26.6 °F 20.0 °F 17.6 °F 69% 29.95 in 10.0 mi WSW 5.8 mph - N/A   Overcast
11:15 PM 26.6 °F 18.2 °F 17.6 °F 69% 29.95 in 10.0 mi WSW 8.1 mph - N/A   Overcast
11:35 PM 26.6 °F 18.2 °F 19.4 °F 74% 29.96 in 10.0 mi WSW 8.1 mph - N/A   Overcast
11:55 PM 26.6 °F 22.6 °F 19.4 °F 74% 29.96 in 10.0 mi WNW 3.5 mph - N/A   Overcast